Location: Syracuse
(43.0480°N, 76.1480°W)
Time: 01:13:42
(UTC-04:00)

Daily predictions for brighter satellites

Satellite Brightness Start Highest point End
(mag) Time Altitude Azimuth Time Altitude Azimuth Time Altitude Azimuth
Cosmos 1943 Rocket 4.5 00:10:18 20° NNW 00:10:18 20° NNW 00:12:48 10° N
ATLAS 3B R/B 4.2 00:54:09 34° N 00:54:09 34° N 00:58:50 10° NNE
CENTAUR R/B 3.9 02:23:02 34° NE 02:23:02 34° NE 02:26:50 10° NE
Resurs 1-4 Rocket 4.0 02:51:15 10° NNE 02:53:58 25° ENE 02:53:58 25° ENE
CZ-2D R/B 3.6 03:03:29 10° NNE 03:06:59 33° NE 03:06:59 33° NE
Cosmos 2322 Rocket 3.5 03:14:58 34° NNE 03:14:58 34° NNE 03:18:07 10° NNE
SL-16 R/B 3.2 03:21:34 50° N 03:21:34 50° N 03:26:05 10° NNW
SL-16 R/B 3.4 03:22:22 36° N 03:22:22 36° N 03:25:48 10° NNE
ARIANE 5 R/B 3.7 03:25:48 10° NNE 03:29:07 40° NNE 03:29:07 40° NNE
COSMOS 2428 4.0 03:35:39 33° ESE 03:35:41 33° ESE 03:40:41 10° NE
Cosmos 2360 Rocket 2.7 03:42:22 56° NE 03:42:22 56° NE 03:46:50 10° NNE
Cosmos 1980 Rocket 4.2 03:43:56 17° NNW 03:43:56 17° NNW 03:46:40 10° N
Okean O Rocket 4.3 03:41:22 10° ENE 03:43:33 13° E 03:45:22 11° ESE
ATLAS 5 CENTAUR R/B 4.0 03:42:56 10° NNW 03:48:08 31° NE 03:53:43 10° ESE
ADEOS Rocket 2.9 03:50:41 10° NNE 03:55:33 70° NNE 03:55:33 70° NNE
Cosmos 2184 Rocket 4.0 03:54:01 10° N 04:00:16 78° E 04:01:17 63° SSE
IRS-1D 4.4 03:57:07 10° N 04:00:22 39° NNW 04:00:22 39° NNW
Cosmos 1536 Rocket 4.4 04:08:44 50° ENE 04:08:44 50° ENE 04:12:43 10° NNE
CENTAUR R/B 4.0 04:10:12 24° NW 04:11:35 26° NNW 04:17:25 10° NNE
COBE Rocket 4.0 04:10:27 10° N 04:15:12 74° NNW 04:15:12 74° NNW
Cosmos 1743 3.9 04:17:38 10° N 04:21:18 40° ENE 04:21:36 39° E
Cosmos 2333 Rocket 3.5 04:19:44 22° SSE 04:22:38 36° ESE 04:27:48 10° NE
USA 215 3.9 04:17:09 10° ESE 04:23:28 53° NNE 04:29:47 10° NW
Cosmos 2322 3.9 04:26:35 54° WNW 04:26:37 54° WNW 04:32:14 10° NNE
Meteor 2-13 Rocket 4.3 04:20:47 10° N 04:26:58 83° W 04:29:10 42° S
USA 229 DEB 4.0 04:29:44 34° S 04:32:38 59° ESE 04:39:26 10° NE
USA 229 4.1 04:29:49 34° S 04:32:45 59° ESE 04:39:32 10° NE
Cosmos 2154 Rocket 4.1 04:28:31 10° N 04:34:45 77° E 04:40:56 10° SSE
DELTA 2 R/B (1) 3.6 04:34:43 59° SSW 04:35:03 61° S 04:40:30 10° E
Resurs 1-4 Rocket 3.1 04:31:06 10° N 04:35:04 32° NW 04:35:04 32° NW
UNKNOWN OBJECT B 4.5 04:38:36 10° N 04:40:16 22° NNW 04:40:16 22° NNW
Aureole 2 Rocket 4.5 04:41:05 20° SE 04:42:11 24° ESE 04:44:56 10° NE
Cosmos 1844 3.7 04:37:34 10° NNW 04:43:22 82° ENE 04:49:04 10° SSE
MOS 1 Rocket 3.0 04:39:09 10° NNE 04:43:48 88° WNW 04:44:28 65° SSW
Cosmos 1238 Rocket 3.4 04:45:26 39° NE 04:45:26 39° NE 04:47:36 10° NNE
Cosmos 2333 4.1 04:44:35 50° SW 04:46:05 78° WNW 04:51:50 10° NNE
CZ-2D R/B 3.3 04:43:58 10° N 04:48:20 28° WNW 04:48:20 28° WNW
EO 1 Del DPAF 4.1 04:44:52 10° SSE 04:48:36 50° ENE 04:52:22 10° N
Nadezhda 1 Rocket 3.9 04:47:12 44° SW 04:49:00 62° W 04:55:03 10° N
Cosmos 1610 Rocket 4.5 04:44:13 10° NNW 04:50:24 63° W 04:54:23 23° SSW
CZ-4B R/B 3.8 04:47:18 10° NNE 04:52:52 58° ESE 04:58:14 10° S
Cosmos 2208 Rocket 4.1 04:52:22 48° WSW 04:53:36 60° WNW 04:59:00 10° NNE
ADEOS II 2.5 04:49:09 10° NNE 04:54:23 61° E 04:59:01 13° S
Cosmos 2322 Rocket 4.2 04:56:46 13° NW 04:57:36 13° NW 05:00:17 10° NNW
Cosmos 2181 Rocket 4.3 04:52:54 10° S 04:59:03 70° E 05:05:22 10° NNE
Cosmos 1980 4.1 04:57:21 18° S 05:01:32 60° ESE 05:07:05 10° NNE
Cosmos 1025 Rocket 3.9 04:57:25 10° S 05:01:38 51° E 05:05:55 10° NNE
NOSS 0 Rocket 4.2 04:59:30 19° S 05:04:02 69° ESE 05:10:10 10° NNE
SL-16 R/B 4.3 05:06:39 14° WNW 05:06:39 14° WNW 05:08:04 10° NW
Cosmos 2219 Rocket 2.1 05:02:20 31° SSW 05:05:05 83° WNW 05:10:44 10° NNE
SL-16 R/B 4.2 05:04:14 12° NW 05:05:27 12° NW 05:07:46 10° NNW
Cosmos 1844 Rocket 2.8 05:03:42 10° NW 05:09:01 47° WSW 05:14:19 10° S
ARIANE 5 R/B 4.2 05:06:14 10° NNW 05:09:28 17° WNW 05:09:28 17° WNW
Cosmos 1867 3.4 05:04:48 10° NW 05:10:17 80° WSW 05:15:41 10° SSE
Meteor 1-13 Rocket 4.1 05:08:27 25° SSW 05:11:40 66° WNW 05:17:18 10° N
Cosmos 468 Rocket 3.9 05:10:37 22° SSW 05:13:59 88° WNW 05:19:16 10° NNE
CZ-4B R/B 2.6 05:11:37 10° N 05:15:14 66° WNW 05:16:29 38° SW
Meteor 2-9 Rocket 4.2 05:10:05 10° N 05:15:46 87° E 05:21:15 10° S
GENESIS II 4.2 05:15:21 35° SSW 05:16:59 90° NE 05:21:05 10° NE
Cosmos 1437 3.7 05:15:40 12° S 05:18:34 49° E 05:21:45 10° NNE
COSMOS 2428 3.3 05:17:41 28° WSW 05:19:50 39° WNW 05:25:09 10° NNE
Cosmos 1898 Rocket 3.4 05:14:53 10° NNW 05:20:02 66° WSW 05:25:09 10° S
Cosmos 2341 Rocket 3.9 05:14:00 10° NNW 05:20:11 65° W 05:26:18 10° S
Okean O Rocket 1.6 05:15:54 10° N 05:20:18 61° WNW 05:22:51 24° SW
IRAS Rocket 4.2 05:15:45 10° NNE 05:21:20 86° ESE 05:26:56 10° SSW
Cosmos 2218 Rocket 4.4 05:15:13 10° N 05:21:36 68° E 05:27:52 10° SSE
Cosmos 2150 Rocket 3.9 05:17:35 10° NNW 05:22:54 81° WSW 05:28:16 10° SSE
Cosmos 2360 Rocket 3.8 05:24:08 16° WNW 05:25:51 19° NW 05:29:46 10° N
Meteor 2-19 Rocket 4.4 05:25:05 10° NNW 05:31:06 63° W 05:37:02 10° S
Cosmos 2278 Rocket 2.1 05:26:56 10° NNW 05:32:37 73° WSW 05:38:14 10° SSE
ATLAS 5 CENTAUR R/B 2.4 05:27:17 10° NW 05:33:13 62° WSW 05:39:39 10° SSE
Cosmos 1763 Rocket 3.6 05:31:17 10° SSW 05:36:20 78° ESE 05:41:30 10° NNE
Meteor 1-23 Rocket 4.2 05:31:18 10° SSW 05:37:06 78° W 05:42:53 10° N
Cosmos 2237 Rocket 2.2 05:32:20 12° SSW 05:37:33 78° WNW 05:43:17 10° NNE
Okean-O 3.2 05:35:12 10° NNE 05:39:37 60° ESE 05:43:59 10° S
ADEOS Rocket 4.5 05:38:19 10° NNW 05:41:00 14° WNW 05:42:30 12° WNW
Cosmos 1666 3.4 05:38:20 10° NNW 05:41:50 33° W 05:45:20 10° SSW
Cosmos 1441 Rocket 4.1 05:39:19 10° S 05:43:12 54° E 05:47:07 10° NNE
SL-8 R/B 3.7 05:40:15 14° WNW 05:44:18 60° SSW 05:49:00 10° SE
Cosmos 1937 Rocket 3.6 05:39:17 10° NNW 05:44:29 56° WSW 05:49:38 10° S
Cosmos 1959 Rocket 4.4 05:42:32 10° N 05:48:39 76° W 05:54:46 10° S
Cosmos 2297 4.0 05:45:38 10° NNW 05:51:24 76° ENE 05:57:07 10° SSE
PSLV R/B 4.1 05:47:26 10° N 05:51:30 39° WNW 05:55:33 10° SW
Cosmos 2285 Rocket 4.3 05:45:57 10° SW 05:52:12 53° WNW 05:58:31 10° NNE
Cosmos 841 Rocket 3.5 05:47:52 10° SSW 05:53:02 88° ESE 05:58:12 10° NNE
Cosmos 405 Rocket 3.0 05:49:26 10° SSW 05:53:23 51° WNW 05:57:16 10° N
Meteor 2-4 Rocket 4.0 05:49:54 10° SW 05:55:08 43° WNW 06:00:18 10° N
CZ-2C R/B 4.3 05:51:42 10° SSW 05:55:50 34° W 05:59:56 10° NNW
Cosmos 1743 4.5 05:54:44 10° NW 05:56:40 14° W 05:56:40 14° W
Cosmos 405 3.2 05:58:11 10° N 06:01:45 76° E 06:05:18 10° SSE
SKYMED 2 4.3 05:58:03 10° SSE 06:02:18 57° ENE 06:06:35 10° N
Cosmos 2058 Rocket 3.0 05:59:32 10° N 06:04:01 77° W 06:08:26 10° S
Meteor PRIRODA 4.1 06:00:55 10° N 06:04:31 44° WNW 06:08:05 10° SW
Cosmos 2366 rocket 4.0 05:59:07 10° NNW 06:05:24 65° W 06:11:40 10° S
GPS 2-04 Rocket1 4.0 06:02:49 11° SW 06:06:01 27° S 06:09:20 10° ESE
USA 215 3.4 06:00:05 10° SSE 06:06:27 53° SW 06:12:50 10° WNW
Cosmos 2333 Rocket 2.9 06:01:46 11° WSW 06:06:51 36° NW 06:12:09 10° N
CZ-4C R/B 3.4 06:00:18 10° NNW 06:07:19 64° NE 06:15:07 10° SE
Timation 1 Rocket 4.4 06:03:04 10° NNW 06:08:56 57° WSW 06:14:46 10° S
ERBS 2.4 06:08:19 10° NW 06:11:49 84° NE 06:15:19 10° SE
NOAA 6 4.1 06:08:02 10° NNE 06:13:11 84° ESE 06:18:18 10° SSW
Cosmos 1606 Rocket 4.2 06:11:00 10° NNW 06:15:06 35° W 06:19:09 10° SSW
Aureole 2 Rocket 3.9 06:14:59 10° WSW 06:17:31 19° WNW 06:19:55 10° NNW
OTV 4 1.9 06:16:33 10° SW 06:18:51 24° S 06:21:09 10° ESE
Meteor 1-31 Rocket 3.2 06:16:14 10° N 06:19:49 40° WNW 06:23:23 10° SW
Cosmos 1346 3.0 06:17:11 10° SSW 06:19:57 51° WNW 06:22:45 10° N
DELTA 2 R/B (1) 3.9 06:15:50 10° W 06:21:12 51° SSW 06:26:33 10° ESE
ERS-2 2.9 06:19:12 10° N 06:22:35 34° WNW 06:25:56 10° SW
